Regional Weather Roundup
Issued by NWS

Home | Current Version | Previous Version | Graphics & Text | Print | Product List | Glossary On
Versions: 1 2 3 4 5 6 7 8 9 10 11 12 13 14 15 16 17 18 19 20 21 22 23 24 25 26 27 28 29 30 31 32 33 34 35 36 37 38 39 40 41 42 43 44 45 46 47 48 49 50
000
ASUS45 KABQ 231310
RWRNM
WEATHER ROUNDUP FOR NEW MEXICO
NATIONAL WEATHER SERVICE ALBUQUERQUE NM
700 AM MDT TUE SEP 23 2014

NOTE: "FAIR" MEANS FEW OR NO CLOUDS BELOW 12,000 FEET AGL WITH NO
       SIGNIFICANT WEATHER OR OBSTRUCTIONS TO VISION.

      THIS PRODUCT IS RELEASED AS TWO VERSIONS.  ONE VERSION NEAR
      THE TOP OF THE HOUR CONTAINING PRELIMINARY DATA FROM ALBUQUERQUE
      AND OTHER STATIONS.  A FINAL VERSION WITH ADDITIONAL DATA IS
      ISSUED ABOUT 10 MINUTES AFTER THE HOUR.

NMZ501-503-504-510>518-231400-
NORTHWEST PLATEAU/NORTHCENTRAL MOUNTAINS

CITY           SKY/WX    TMP DP  RH WIND       PRES   REMARKS
FARMINGTON     CLEAR     51  42  71 N5        30.24R
LOS ALAMOS     FOG       54  54 100 CALM      30.35S VSB<1/4
SANTA FE       CLOUDY    59  57  93 W5        30.30S
TAOS           CLOUDY    54  48  82 S7        30.34S
ANGEL FIRE     PTSUNNY   52  47  85 SE6       30.39S

$$
NMZ402-403-502-505>509-231400-
WESTCENTRAL MOUNTAINS/SOUTHWEST MOUNTAINS

CITY           SKY/WX    TMP DP  RH WIND       PRES   REMARKS
GALLUP         CLEAR     53  51  93 CALM      30.30R
GRANTS         FOG       54  54 100 NW3       30.32S VSB<1/4
SILVER CITY    CLEAR     63  61  94 W6        30.25S

$$
NMZ407-409-411-412-231400-
SOUTHERN DESERTS

CITY           SKY/WX    TMP DP  RH WIND       PRES   REMARKS
LORDSBURG      FAIR      64  63  94 MISG      30.18R
DEMING         CLEAR     64  63  96 NE3       30.18S
LAS CRUCES     CLOUDY    65  63  94 SE3       30.21R
HOLLOMAN AFB   MOCLDY    67  60  80 SE6       30.17F
ALAMOGORDO     PTCLDY    64  64 100 SE3       30.20F
T OR C         CLEAR     60  59  96 S5        30.21S

$$
NMZ519>523-231400-
CENTRAL VALLEYS/CENTRAL HIGHLANDS

CITY           SKY/WX    TMP DP  RH WIND       PRES   REMARKS
ALBUQUERQUE    PTCLDY    60  55  83 CALM      30.26S
DOUBLE EAGLE   PTCLDY    52  52 100 CALM      30.28S
MORIARTY ARPT  CLOUDY    57  55  94 CALM      30.31S
CLINES CORNERS CLOUDY    57  55  93 W9        30.32R
BELEN          FAIR      57  56  96 CALM      30.25S
SOCORRO        FAIR      59  57  95 SW6       30.24S

$$
NMZ524>526-539-540-231400-
SOUTHCENTRAL MOUNTAINS

CITY           SKY/WX    TMP DP  RH WIND       PRES   REMARKS
RUIDOSO        NOT AVBL

$$
NMZ527>531-231400-
NORTHEAST HIGHLANDS/NORTHEAST PLAINS

CITY           SKY/WX    TMP DP  RH WIND       PRES   REMARKS
LAS VEGAS      FOG       54  54 100 CALM      30.30S VSB 3/4
RATON          MOCLDY    57  55  93 S3        30.26R
CLAYTON        PTCLDY    60  58  92 SW16      30.17S FOG

$$
NMZ532>537-231400-
EASTCENTRAL PLAINS

CITY           SKY/WX    TMP DP  RH WIND       PRES   REMARKS
TUCUMCARI      CLOUDY    65  60  84 SW3       30.18R
CANNON AFB     PTCLDY    60  59  97 S6        30.22S
CLOVIS AIRPORT   N/A     61  57  88 S8        30.24S

$$
NMZ028-029-538-231400-
SOUTHEAST PLAINS

CITY           SKY/WX    TMP DP  RH WIND       PRES   REMARKS
ROSWELL        MOCLDY    65  63  93 S5        30.18R FOG
CARLSBAD       PTCLDY    63  32  31 CALM      30.16R HAZE
HOBBS          PTCLDY    63  63 100 NE3       30.22R FOG


$$



USA.gov is the U.S. government's official web portal to all federal, state and local government web resources and services.